Weather History for Burlington, IA

Change the Weather History Date:

Monday, January 6, 2014

  Actual Average Record
Temperature  
Mean Temperature -9 °F 26 °F  
Max Temperature -4 °F 34 °F 61 °F (2008)
Min Temperature -14 °F 17 °F -14 °F (1970)
Degree Days  
Heating Degree Days 74 39  
Month to date heating degree days 338 234  
Since 1 July heating degree days 2855 2420  
Cooling Degree Days 0 0  
Month to date cooling degree days 0 0  
Year to date cooling degree days 0 0  
Moisture  
Dew Point -20 °F    
Average Humidity 62    
Maximum Humidity 72    
Minimum Humidity 52    
Precipitation  
Precipitation 0.00 in 0.04 in 0.60 in (1998)
Month to date precipitation 0.08 0.26  
Year to date precipitation 0.08 0.26  
Sea Level Pressure  
Sea Level Pressure 30.41 in    
Wind  
Wind Speed 12 mph (WNW)    
Max Wind Speed 26 mph    
Max Gust Speed 35 mph    
Visibility 10 miles    
Events      
T = Trace of Precipitation, MM = Missing Value Source: NWS Daily Summary

Daily Weather History Graph

Daily Weather History Graph

Search for Another Location

Airport:

Trip Planner

Search our weather history database for the weather conditions in past years. The results will help you decide how hot, cold, wet, or windy it might be!

Date:

Astronomy

Jan. 06, 2014 Rise Set
Actual Time 7:28 AM CST 4:52 PM CST
Civil Twilight 6:58 AM CST 5:22 PM CST
Nautical Twilight 6:23 AM CST 5:57 PM CST
Astronomical Twilight 5:50 AM CST 6:30 PM CST
Moon 10:42 AM CST (1/6) 11:28 PM CST (1/6)
Length of Visible Light 10h 24m
Length of Day
9h 23m
Waxing Crescent, 35% of the Moon is Illuminated
Jan 6
Waxing Crescent
Jan 7
First Quarter
Jan 15
Full
Jan 23
Last Quarter
Jan 30
New

Hourly Weather History & Observations

Time (CST) Temp. Windchill Dew Point Humidity Pressure Visibility Wind Dir Wind Speed Gust Speed Precip Events Conditions
12:46 AM -9.0 °F -36.3 °F -20.0 °F 59% 30.33 in 9.0 mi NW 25.3 mph 33.4 mph 0.00 in   Mostly Cloudy
12:53 AM -9.0 °F -33.6 °F -20.9 °F 56% 30.39 in 8.0 mi NW 19.6 mph 33.4 mph 0.00 in   Mostly Cloudy
1:07 AM -9.9 °F -32.1 °F -22.0 °F 55% 30.33 in 10.0 mi NW 15.0 mph 27.6 mph 0.00 in   Scattered Clouds
1:53 AM -9.9 °F -27.5 °F -20.9 °F 59% 30.40 in 10.0 mi NW 9.2 mph 20.7 mph 0.00 in   Clear
2:46 AM -9.9 °F -27.5 °F -20.0 °F 61% 30.34 in 10.0 mi WNW 9.2 mph 18.4 mph N/A   Mostly Cloudy
2:53 AM -9.9 °F -29.6 °F -20.0 °F 61% 30.40 in 10.0 mi WNW 11.5 mph 24.2 mph N/A   Mostly Cloudy
3:18 AM -11.0 °F -32.7 °F -23.1 °F 55% 30.35 in 10.0 mi WNW 13.8 mph 26.5 mph N/A   Scattered Clouds
3:53 AM -11.9 °F -36.8 °F -24.0 °F 55% 30.41 in 10.0 mi NW 18.4 mph 27.6 mph N/A   Partly Cloudy
4:53 AM -13.0 °F -32.4 °F -22.0 °F 64% 30.41 in 10.0 mi WNW 10.4 mph - N/A   Clear
5:53 AM -13.0 °F -35.2 °F -24.0 °F 58% 30.42 in 10.0 mi WNW 13.8 mph 21.9 mph N/A   Partly Cloudy
6:19 AM -13.0 °F -33.4 °F -24.0 °F 58% 30.36 in 10.0 mi NW 11.5 mph 26.5 mph N/A   Mostly Cloudy
6:53 AM -14.1 °F -32.6 °F -23.1 °F 64% 30.43 in 10.0 mi WNW 9.2 mph 20.7 mph N/A   Overcast
7:31 AM -14.1 °F -33.7 °F -24.0 °F 61% 30.37 in 10.0 mi WNW 10.4 mph 23.0 mph N/A   Scattered Clouds
7:53 AM -14.1 °F -33.7 °F -24.0 °F 61% 30.44 in 10.0 mi WNW 10.4 mph - N/A   Clear
8:53 AM -11.9 °F -34.6 °F -23.1 °F 58% 30.45 in 10.0 mi WNW 15.0 mph 21.9 mph N/A   Clear
9:53 AM -11.0 °F -32.7 °F -22.0 °F 58% 30.46 in 10.0 mi WNW 13.8 mph 18.4 mph N/A   Partly Cloudy
10:53 AM -9.9 °F -32.1 °F -22.0 °F 55% 30.46 in 10.0 mi WNW 15.0 mph 21.9 mph N/A   Clear
11:21 AM -9.0 °F -31.7 °F -20.9 °F 56% 30.38 in 10.0 mi West 16.1 mph 21.9 mph N/A   Mostly Cloudy
11:53 AM -8.0 °F -29.6 °F -20.0 °F 56% 30.44 in 10.0 mi West 15.0 mph 24.2 mph 0.00 in   Overcast
12:53 PM -7.1 °F -26.8 °F -18.9 °F 56% 30.42 in 10.0 mi WNW 12.7 mph 29.9 mph 0.00 in   Overcast
1:53 PM -5.1 °F -24.3 °F -18.0 °F 54% 30.42 in 10.0 mi WNW 12.7 mph 20.7 mph 0.00 in   Overcast
2:53 PM -4.0 °F -22.1 °F -17.0 °F 54% 30.43 in 10.0 mi WNW 11.5 mph - 0.00 in   Scattered Clouds
3:26 PM -5.1 °F -22.5 °F -17.0 °F 57% 30.37 in 10.0 mi WNW 10.4 mph 21.9 mph N/A   Mostly Cloudy
3:53 PM -5.1 °F -23.5 °F -17.0 °F 57% 30.45 in 10.0 mi West 11.5 mph - N/A   Mostly Cloudy
4:20 PM -5.1 °F -24.3 °F -17.0 °F 57% 30.37 in 10.0 mi WNW 12.7 mph 23.0 mph 0.00 in   Scattered Clouds
4:53 PM -5.1 °F -21.5 °F -18.0 °F 54% 30.43 in 10.0 mi West 9.2 mph - 0.00 in   Clear
5:53 PM -6.0 °F -22.6 °F -17.0 °F 59% 30.44 in 10.0 mi West 9.2 mph - 0.00 in   Clear
6:53 PM -7.1 °F -25.0 °F -16.1 °F 65% 30.44 in 10.0 mi WSW 10.4 mph - N/A   Clear
7:53 PM -6.0 °F -23.6 °F -16.1 °F 62% 30.43 in 10.0 mi WSW 10.4 mph - N/A   Clear
8:53 PM -7.1 °F -23.9 °F -16.1 °F 65% 30.43 in 10.0 mi WSW 9.2 mph - N/A   Clear
9:53 PM -8.0 °F -23.9 °F -16.1 °F 68% 30.42 in 10.0 mi WSW 8.1 mph - N/A   Clear
10:53 PM -9.0 °F -26.4 °F -16.1 °F 71% 30.41 in 10.0 mi WSW 9.2 mph - N/A   Clear
11:53 PM -9.0 °F -26.4 °F -16.1 °F 71% 30.40 in 10.0 mi WSW 9.2 mph - N/A   Clear